Time,TemperatureF,DewpointF,PressureIn,WindDirection,WindDirectionDegrees,WindSpeedMPH,WindSpeedGustMPH,Humidity,HourlyPrecipIn,Conditions,Clouds,dailyrainin,SoftwareType,DateUTC
2013-01-29 00:04:00,53.0,-99.9,-100.00,South,190,10.0,13.0,-999,0.00,,,-99.99,,2013-01-29 05:04:00,
2013-01-29 00:12:00,53.0,-99.9,-100.00,SSW,195,6.0,12.0,-999,0.00,,,-99.99,,2013-01-29 05:12:00,
2013-01-29 00:22:00,53.0,-99.9,-100.00,South,190,8.0,12.0,-999,0.00,,,-99.99,,2013-01-29 05:22:00,
2013-01-29 00:32:00,53.0,-99.9,-100.00,SSW,205,5.0,12.0,-999,0.00,,,-99.99,,2013-01-29 05:32:00,
2013-01-29 00:43:00,53.0,-99.9,-100.00,South,190,7.0,12.0,-999,0.00,,,-99.99,,2013-01-29 05:43:00,
2013-01-29 00:52:00,53.0,-99.9,-100.00,SSW,205,6.0,10.0,-999,0.00,,,-99.99,,2013-01-29 05:52:00,
2013-01-29 01:02:00,53.0,-99.9,-100.00,SSW,200,6.0,12.0,-999,0.00,,,-99.99,,2013-01-29 06:02:00,
2013-01-29 01:11:00,53.0,-99.9,-100.00,SSW,205,6.0,11.0,-999,0.00,,,-99.99,,2013-01-29 06:11:00,
2013-01-29 01:22:00,53.0,-99.9,-100.00,SSW,205,9.0,12.0,-999,0.00,,,-99.99,,2013-01-29 06:22:00,
2013-01-29 01:32:00,53.0,-99.9,-100.00,South,185,6.0,11.0,-999,0.55,,,-99.99,,2013-01-29 06:32:00,
2013-01-29 01:42:00,53.0,-99.9,-100.00,South,185,6.0,10.0,-999,0.00,,,-99.99,,2013-01-29 06:42:00,
2013-01-29 01:52:00,53.0,-99.9,-100.00,SSW,210,6.0,10.0,-999,0.00,,,-99.99,,2013-01-29 06:52:00,
2013-01-29 02:02:00,53.0,-99.9,-100.00,SSW,195,6.0,9.0,-999,0.00,,,-99.99,,2013-01-29 07:02:00,
2013-01-29 02:11:00,53.0,-99.9,-100.00,South,175,4.0,9.0,-999,0.00,,,-99.99,,2013-01-29 07:11:00,
2013-01-29 02:21:00,53.0,-99.9,-100.00,South,190,4.0,10.0,-999,0.00,,,-99.99,,2013-01-29 07:21:00,
2013-01-29 02:32:00,53.0,-99.9,-100.00,SSW,205,2.0,9.0,-999,0.00,,,-99.99,,2013-01-29 07:32:00,
2013-01-29 02:42:00,53.0,-99.9,-100.00,South,180,4.0,7.0,-999,0.00,,,-99.99,,2013-01-29 07:42:00,
2013-01-29 02:52:00,53.0,-99.9,-100.00,South,190,2.0,7.0,-999,0.00,,,-99.99,,2013-01-29 07:52:00,
2013-01-29 03:02:00,53.0,-99.9,-100.00,SSW,205,4.0,7.0,-999,0.00,,,-99.99,,2013-01-29 08:02:00,
2013-01-29 03:11:00,53.0,-99.9,-100.00,South,180,4.0,9.0,-999,0.00,,,-99.99,,2013-01-29 08:11:00,
2013-01-29 03:21:00,53.0,-99.9,-100.00,SSW,200,4.0,9.0,-999,0.00,,,-99.99,,2013-01-29 08:21:00,
2013-01-29 03:32:00,53.0,-99.9,-100.00,SSW,195,1.0,6.0,-999,0.00,,,-99.99,,2013-01-29 08:32:00,
2013-01-29 03:42:00,53.0,-99.9,-100.00,South,190,1.0,8.0,-999,0.00,,,-99.99,,2013-01-29 08:42:00,
2013-01-29 03:52:00,53.0,-99.9,-100.00,SSE,155,1.0,6.0,-999,0.00,,,-99.99,,2013-01-29 08:52:00,
2013-01-29 04:02:00,53.0,-99.9,-100.00,ENE,75,0.0,5.0,-999,0.00,,,-99.99,,2013-01-29 09:02:00,
2013-01-29 04:11:00,52.0,-99.9,-100.00,SE,145,0.0,6.0,-999,0.00,,,-99.99,,2013-01-29 09:11:00,
2013-01-29 04:22:00,52.0,-99.9,-100.00,East,80,0.0,4.0,-999,0.00,,,-99.99,,2013-01-29 09:22:00,
2013-01-29 04:32:00,51.0,-99.9,-100.00,ENE,60,3.0,5.0,-999,0.00,,,-99.99,,2013-01-29 09:32:00,
2013-01-29 04:42:00,50.0,-99.9,-100.00,ENE,60,3.0,5.0,-999,0.00,,,-99.99,,2013-01-29 09:42:00,
2013-01-29 04:52:00,50.0,-99.9,-100.00,ENE,75,1.0,5.0,-999,0.00,,,-99.99,,2013-01-29 09:52:00,
2013-01-29 05:02:00,50.0,-99.9,-100.00,ENE,65,2.0,4.0,-999,0.00,,,-99.99,,2013-01-29 10:02:00,
2013-01-29 05:11:00,50.0,-99.9,-100.00,ENE,70,1.0,4.0,-999,0.00,,,-99.99,,2013-01-29 10:11:00,
2013-01-29 05:22:00,49.0,-99.9,-100.00,East,80,0.0,2.0,-999,0.00,,,-99.99,,2013-01-29 10:22:00,
2013-01-29 05:32:00,49.0,-99.9,-100.00,NE,50,0.0,3.0,-999,0.00,,,-99.99,,2013-01-29 10:32:00,
2013-01-29 05:42:00,49.0,-99.9,-100.00,ENE,70,2.0,3.0,-999,0.00,,,-99.99,,2013-01-29 10:42:00,
2013-01-29 05:52:00,49.0,-99.9,-100.00,ENE,60,1.0,4.0,-999,0.00,,,-99.99,,2013-01-29 10:52:00,
2013-01-29 06:02:00,49.0,-99.9,-100.00,ENE,70,1.0,4.0,-999,0.00,,,-99.99,,2013-01-29 11:02:00,
2013-01-29 06:12:00,49.0,-99.9,-100.00,ENE,60,1.0,4.0,-999,0.00,,,-99.99,,2013-01-29 11:12:00,
2013-01-29 06:22:00,49.0,-99.9,-100.00,ENE,65,1.0,4.0,-999,0.00,,,-99.99,,2013-01-29 11:22:00,
2013-01-29 06:32:00,48.0,-99.9,-100.00,ENE,65,1.0,2.0,-999,0.00,,,-99.99,,2013-01-29 11:32:00,
2013-01-29 06:42:00,48.0,-99.9,-100.00,ESE,120,0.0,2.0,-999,0.00,,,-99.99,,2013-01-29 11:42:00,
2013-01-29 06:53:00,49.0,-99.9,-100.00,South,190,0.0,3.0,-999,0.00,,,-99.99,,2013-01-29 11:53:00,
2013-01-29 07:03:00,49.0,-99.9,-100.00,NE,50,0.0,2.0,-999,0.00,,,-99.99,,2013-01-29 12:03:00,
2013-01-29 07:12:00,50.0,-99.9,-100.00,ENE,65,1.0,3.0,-999,0.00,,,-99.99,,2013-01-29 12:12:00,
2013-01-29 07:22:00,50.0,-99.9,-100.00,South,175,1.0,5.0,-999,0.00,,,-99.99,,2013-01-29 12:22:00,
2013-01-29 07:33:00,49.0,-99.9,-100.00,South,180,1.0,4.0,-999,0.00,,,-99.99,,2013-01-29 12:33:00,
2013-01-29 07:43:00,49.0,-99.9,-100.00,South,180,1.0,6.0,-999,0.00,,,-99.99,,2013-01-29 12:43:00,
2013-01-29 07:53:00,49.0,-99.9,-100.00,SW,235,2.0,5.0,-999,0.00,,,-99.99,,2013-01-29 12:53:00,
2013-01-29 08:02:00,49.0,-99.9,-100.00,South,180,1.0,4.0,-999,0.00,,,-99.99,,2013-01-29 13:02:00,
2013-01-29 08:12:00,49.0,-99.9,-100.00,South,180,1.0,4.0,-999,0.00,,,-99.99,,2013-01-29 13:12:00,
2013-01-29 08:23:00,49.0,-99.9,-100.00,SW,215,1.0,3.0,-999,0.00,,,-99.99,,2013-01-29 13:23:00,
2013-01-29 08:32:00,49.0,-99.9,-100.00,SSW,210,0.0,3.0,-999,0.00,,,-99.99,,2013-01-29 13:32:00,
2013-01-29 08:43:00,50.0,-99.9,-100.00,SW,220,1.0,6.0,-999,0.00,,,-99.99,,2013-01-29 13:43:00,
2013-01-29 08:53:00,50.0,-99.9,-100.00,SE,130,0.0,6.0,-999,0.00,,,-99.99,,2013-01-29 13:53:00,
2013-01-29 09:02:00,51.0,-99.9,-100.00,SSW,195,2.0,5.0,-999,0.00,,,-99.99,,2013-01-29 14:02:00,
2013-01-29 09:13:00,51.0,-99.9,-100.00,South,180,2.0,6.0,-999,0.00,,,-99.99,,2013-01-29 14:13:00,
2013-01-29 09:22:00,52.0,-99.9,-100.00,South,185,3.0,8.0,-999,2.83,,,-99.99,,2013-01-29 14:22:00,
2013-01-29 09:33:00,53.0,-99.9,-100.00,South,185,3.0,8.0,-999,0.55,,,-99.99,,2013-01-29 14:33:00,
2013-01-29 09:43:00,53.0,52.0,-100.00,SSW,195,4.0,9.0,96,0.00,,,-99.99,,2013-01-29 14:43:00,
2013-01-29 09:52:00,53.0,51.0,-100.00,South,170,2.0,9.0,92,0.55,,,-99.99,,2013-01-29 14:52:00,
2013-01-29 10:02:00,54.0,51.0,-100.00,SSE,150,1.0,6.0,90,0.00,,,-99.99,,2013-01-29 15:02:00,
2013-01-29 10:12:00,55.0,51.0,-100.00,SSE,165,1.0,5.0,88,1.69,,,-99.99,,2013-01-29 15:12:00,
2013-01-29 10:22:00,56.0,51.0,-100.00,South,180,2.0,6.0,86,0.00,,,-99.99,,2013-01-29 15:22:00,
2013-01-29 10:33:00,56.0,51.0,-100.00,South,190,3.0,6.0,81,0.00,,,-99.99,,2013-01-29 15:33:00,
2013-01-29 10:43:00,56.0,51.0,-100.00,SSE,165,2.0,8.0,80,0.00,,,-99.99,,2013-01-29 15:43:00,
2013-01-29 10:53:00,58.0,51.0,-100.00,SSE,160,2.0,7.0,78,0.00,,,-99.99,,2013-01-29 15:53:00,
2013-01-29 11:03:00,59.0,52.0,-100.00,South,170,3.0,8.0,77,0.00,,,-99.99,,2013-01-29 16:03:00,
2013-01-29 11:12:00,59.0,52.0,-100.00,SSE,155,3.0,7.0,76,0.00,,,-99.99,,2013-01-29 16:12:00,
2013-01-29 11:23:00,60.0,53.0,-100.00,SSE,165,3.0,9.0,76,0.00,,,-99.99,,2013-01-29 16:23:00,
2013-01-29 11:32:00,60.0,52.0,-100.00,SSW,195,7.0,11.0,75,0.00,,,-99.99,,2013-01-29 16:32:00,
2013-01-29 11:43:00,61.0,53.0,-100.00,SSW,200,4.0,15.0,73,0.00,,,-99.99,,2013-01-29 16:43:00,
2013-01-29 11:52:00,62.0,53.0,-100.00,South,180,7.0,12.0,72,0.00,,,-99.99,,2013-01-29 16:52:00,
2013-01-29 12:03:00,63.0,53.0,-100.00,SSW,205,6.0,16.0,70,0.00,,,-99.99,,2013-01-29 17:03:00,
2013-01-29 12:12:00,63.0,53.0,-100.00,South,185,6.0,16.0,71,0.00,,,-99.99,,2013-01-29 17:12:00,
2013-01-29 12:22:00,63.0,53.0,-100.00,SSW,195,10.0,16.0,69,0.00,,,-99.99,,2013-01-29 17:22:00,
2013-01-29 12:33:00,63.0,53.0,-100.00,South,170,11.0,21.0,69,0.00,,,-99.99,,2013-01-29 17:33:00,
2013-01-29 12:42:00,64.0,53.0,-100.00,SSE,155,7.0,14.0,67,0.00,,,-99.99,,2013-01-29 17:42:00,
2013-01-29 12:52:00,64.0,53.0,-100.00,SSW,205,7.0,21.0,66,0.00,,,-99.99,,2013-01-29 17:52:00,
2013-01-29 13:04:00,65.0,53.0,-100.00,SSW,200,6.0,19.0,65,0.00,,,-99.99,,2013-01-29 18:04:00,
2013-01-29 13:12:00,65.0,53.0,-100.00,SSW,195,8.0,16.0,66,0.00,,,-99.99,,2013-01-29 18:12:00,
2013-01-29 13:22:00,65.0,53.0,-100.00,SSW,210,6.0,16.0,65,0.00,,,-99.99,,2013-01-29 18:22:00,
2013-01-29 13:33:00,65.0,53.0,-100.00,South,190,6.0,10.0,63,0.00,,,-99.99,,2013-01-29 18:33:00,
2013-01-29 13:42:00,66.0,53.0,-100.00,South,185,9.0,17.0,63,0.00,,,-99.99,,2013-01-29 18:42:00,
2013-01-29 13:52:00,66.0,52.0,-100.00,SSW,200,6.0,16.0,61,0.00,,,-99.99,,2013-01-29 18:52:00,
2013-01-29 14:03:00,66.0,52.0,-100.00,South,180,7.0,18.0,61,0.00,,,-99.99,,2013-01-29 19:03:00,
2013-01-29 14:12:00,67.0,53.0,-100.00,South,175,6.0,16.0,59,0.00,,,-99.99,,2013-01-29 19:12:00,
2013-01-29 14:22:00,67.0,53.0,-100.00,South,185,5.0,17.0,58,0.00,,,-99.99,,2013-01-29 19:22:00,
2013-01-29 14:32:00,67.0,53.0,-100.00,SW,220,4.0,15.0,59,0.00,,,-99.99,,2013-01-29 19:32:00,
2013-01-29 14:42:00,68.0,53.0,-100.00,South,185,7.0,17.0,57,0.00,,,-99.99,,2013-01-29 19:42:00,
2013-01-29 14:52:00,68.0,52.0,-100.00,South,185,9.0,15.0,56,0.00,,,-99.99,,2013-01-29 19:52:00,
2013-01-29 15:03:00,68.0,52.0,-100.00,South,175,8.0,15.0,55,0.00,,,-99.99,,2013-01-29 20:03:00,
2013-01-29 15:12:00,69.0,52.0,-100.00,South,175,6.0,13.0,54,0.00,,,-99.99,,2013-01-29 20:12:00,
2013-01-29 15:22:00,70.0,52.0,-100.00,South,185,8.0,19.0,52,0.00,,,-99.99,,2013-01-29 20:22:00,
2013-01-29 15:33:00,70.0,51.0,-100.00,South,185,9.0,24.0,51,0.00,,,-99.99,,2013-01-29 20:33:00,
2013-01-29 15:42:00,71.0,52.0,-100.00,SSW,195,6.0,17.0,50,0.00,,,-99.99,,2013-01-29 20:42:00,
2013-01-29 15:53:00,71.0,51.0,-100.00,South,180,6.0,19.0,50,0.00,,,-99.99,,2013-01-29 20:53:00,
2013-01-29 16:03:00,70.0,51.0,-100.00,South,170,7.0,16.0,51,0.00,,,-99.99,,2013-01-29 21:03:00,
2013-01-29 16:12:00,70.0,51.0,-100.00,SSW,205,7.0,16.0,50,0.00,,,-99.99,,2013-01-29 21:12:00,
2013-01-29 16:22:00,71.0,50.0,-100.00,SSW,200,10.0,16.0,48,0.00,,,-99.99,,2013-01-29 21:22:00,
2013-01-29 16:33:00,70.0,50.0,-100.00,SSE,160,11.0,22.0,49,0.00,,,-99.99,,2013-01-29 21:33:00,
2013-01-29 16:42:00,70.0,50.0,-100.00,SSW,195,7.0,19.0,49,0.00,,,-99.99,,2013-01-29 21:42:00,
2013-01-29 16:52:00,69.0,50.0,-100.00,SW,215,7.0,16.0,49,0.00,,,-99.99,,2013-01-29 21:52:00,
2013-01-29 17:03:00,68.0,50.0,-100.00,South,185,5.0,13.0,51,0.00,,,-99.99,,2013-01-29 22:03:00,
2013-01-29 17:12:00,68.0,50.0,-100.00,SSW,195,6.0,11.0,53,0.00,,,-99.99,,2013-01-29 22:12:00,
2013-01-29 17:22:00,67.0,50.0,-100.00,SW,235,1.0,11.0,54,0.00,,,-99.99,,2013-01-29 22:22:00,
2013-01-29 17:33:00,67.0,50.0,-100.00,SSE,160,4.0,8.0,54,0.00,,,-99.99,,2013-01-29 22:33:00,
2013-01-29 17:42:00,67.0,50.0,-100.00,South,185,2.0,10.0,56,0.00,,,-99.99,,2013-01-29 22:42:00,
2013-01-29 17:52:00,66.0,50.0,-100.00,SW,215,3.0,7.0,56,0.00,,,-99.99,,2013-01-29 22:52:00,
2013-01-29 18:02:00,65.0,50.0,-100.00,SW,215,1.0,6.0,58,0.00,,,-99.99,,2013-01-29 23:02:00,
2013-01-29 18:12:00,64.0,50.0,-100.00,NNE,30,0.0,3.0,61,0.00,,,-99.99,,2013-01-29 23:12:00,
2013-01-29 18:22:00,63.0,50.0,-100.00,North,10,0.0,2.0,63,0.00,,,-99.99,,2013-01-29 23:22:00,
2013-01-29 18:33:00,61.0,50.0,-100.00,ENE,60,0.0,2.0,67,0.00,,,-99.99,,2013-01-29 23:33:00,
2013-01-29 18:42:00,60.0,50.0,-100.00,NE,40,0.0,2.0,69,0.00,,,-99.99,,2013-01-29 23:42:00,
2013-01-29 18:52:00,59.0,49.0,-100.00,NNE,25,1.0,2.0,70,0.00,,,-99.99,,2013-01-29 23:52:00,
2013-01-29 19:03:00,58.0,50.0,-100.00,WSW,255,0.0,3.0,72,0.00,,,-99.99,,2013-01-30 00:03:00,
2013-01-29 19:12:00,57.0,49.0,-100.00,NNW,345,0.0,2.0,74,0.00,,,-99.99,,2013-01-30 00:12:00,
2013-01-29 19:22:00,56.0,49.0,-100.00,SW,235,1.0,4.0,76,0.00,,,-99.99,,2013-01-30 00:22:00,
2013-01-29 19:32:00,57.0,49.0,-100.00,North,350,0.0,3.0,74,0.00,,,-99.99,,2013-01-30 00:32:00,
2013-01-29 19:42:00,59.0,49.0,-100.00,NW,305,0.0,5.0,70,0.00,,,-99.99,,2013-01-30 00:42:00,
2013-01-29 19:52:00,59.0,49.0,-100.00,SW,215,1.0,2.0,70,0.00,,,-99.99,,2013-01-30 00:52:00,
2013-01-29 20:02:00,58.0,49.0,-100.00,North,0,1.0,4.0,71,0.00,,,-99.99,,2013-01-30 01:02:00,
2013-01-29 20:12:00,58.0,50.0,-100.00,WNW,300,0.0,5.0,72,0.00,,,-99.99,,2013-01-30 01:12:00,
2013-01-29 20:22:00,58.0,50.0,-100.00,NW,315,0.0,3.0,74,0.00,,,-99.99,,2013-01-30 01:22:00,
2013-01-29 20:32:00,58.0,50.0,-100.00,West,265,1.0,3.0,73,0.00,,,-99.99,,2013-01-30 01:32:00,
2013-01-29 20:42:00,58.0,50.0,-100.00,NW,315,1.0,4.0,73,0.00,,,-99.99,,2013-01-30 01:42:00,
2013-01-29 20:52:00,60.0,51.0,-100.00,SE,125,1.0,9.0,71,0.00,,,-99.99,,2013-01-30 01:52:00,
2013-01-29 21:12:00,63.0,51.0,-100.00,South,190,2.0,11.0,66,0.00,,,-99.99,,2013-01-30 02:12:00,
2013-01-29 21:22:00,63.0,52.0,-100.00,SSW,210,1.0,14.0,66,0.00,,,-99.99,,2013-01-30 02:22:00,
2013-01-29 21:33:00,62.0,52.0,-100.00,SE,140,3.0,9.0,68,0.00,,,-99.99,,2013-01-30 02:33:00,
2013-01-29 21:42:00,63.0,52.0,-100.00,SSW,195,2.0,9.0,66,0.00,,,-99.99,,2013-01-30 02:42:00,
2013-01-29 21:52:00,63.0,52.0,-100.00,ESE,105,1.0,10.0,67,0.00,,,-99.99,,2013-01-30 02:52:00,
2013-01-29 22:03:00,63.0,52.0,-100.00,NE,45,1.0,7.0,66,0.00,,,-99.99,,2013-01-30 03:03:00,
2013-01-29 22:12:00,64.0,52.0,-100.00,SE,145,2.0,9.0,66,0.00,,,-99.99,,2013-01-30 03:12:00,
2013-01-29 22:22:00,63.0,52.0,-100.00,SSW,210,1.0,12.0,67,0.00,,,-99.99,,2013-01-30 03:22:00,
2013-01-29 22:32:00,64.0,52.0,-100.00,SSW,195,2.0,10.0,66,0.00,,,-99.99,,2013-01-30 03:32:00,
2013-01-29 22:42:00,64.0,53.0,-100.00,South,175,2.0,7.0,67,0.00,,,-99.99,,2013-01-30 03:42:00,
2013-01-29 22:52:00,64.0,53.0,-100.00,South,170,6.0,13.0,66,0.00,,,-99.99,,2013-01-30 03:52:00,
2013-01-29 23:02:00,64.0,53.0,-100.00,South,175,6.0,17.0,67,0.00,,,-99.99,,2013-01-30 04:02:00,
2013-01-29 23:12:00,64.0,53.0,-100.00,SSE,160,4.0,16.0,67,0.00,,,-99.99,,2013-01-30 04:12:00,
2013-01-29 23:22:00,64.0,54.0,-100.00,SSW,205,4.0,9.0,69,0.00,,,-99.99,,2013-01-30 04:22:00,
2013-01-29 23:32:00,64.0,53.0,-100.00,South,180,1.0,12.0,68,0.00,,,-99.99,,2013-01-30 04:32:00,
2013-01-29 23:41:00,64.0,53.0,-100.00,SSW,210,4.0,9.0,68,0.00,,,-99.99,,2013-01-30 04:41:00,
2013-01-29 23:52:00,63.0,54.0,-100.00,SE,140,2.0,7.0,70,0.00,,,-99.99,,2013-01-30 04:52:00,